Theta_e
357 357 356 355 355 356 354 353 352 354 355 355 356 356 357 357 356 356 357 358 358 357 357 357 356 356 355 355 356 356 357 359 359 359 358 358 359 358 356 357 357 355 356 358 355 354 352 351 351 351 351 350 350 351 350 350 351 351 352 351 350 352 352 352 352 350 348 346 343 343 344 344 347 350 355 356 355 356 356 355 355 354 355 356 356
359 359 358 357 357 356 356 355 353 354 355 355 355 356 356 356 356 355 355 355 356 356 357 356 355 355 356 356 356 356 357 358 358 359 358 358 360 360 358 358 358 355 356 357 356 356 355 352 353 353 353 351 349 350 350 349 350 351 352 353 351 351 352 352 351 351 350 348 346 347 348 347 346 347 351 354 354 354 352 350 352 353 354 355 356
358 359 360 359 358 357 357 357 355 355 355 355 355 355 355 355 355 354 353 352 353 355 355 355 355 355 355 356 357 357 357 358 357 357 358 358 358 359 359 360 360 358 357 357 356 357 356 355 356 356 356 354 350 350 350 350 350 350 351 352 354 353 352 352 352 352 352 351 348 349 350 350 350 348 347 347 348 346 345 347 351 354 354 356 357
354 355 357 357 357 356 357 357 356 356 357 357 356 355 355 355 354 353 352 352 352 353 354 353 354 355 355 356 356 357 357 358 358 358 358 357 356 356 357 359 361 360 359 357 356 356 356 356 357 358 357 355 352 351 352 352 351 351 350 351 352 353 352 352 352 351 352 352 350 349 350 351 352 350 348 347 345 343 345 350 355 356 357 358 358
353 352 352 354 355 355 355 356 356 356 355 356 356 355 356 355 354 353 353 352 352 352 352 353 353 354 355 355 355 355 355 356 357 358 357 357 356 355 355 356 358 359 359 358 357 356 356 356 356 356 357 357 355 354 354 354 354 354 352 351 351 351 350 351 351 352 352 352 350 350 352 353 353 351 350 350 348 346 349 355 357 357 357 357 357
353 352 350 350 352 353 354 355 356 356 355 355 355 355 355 354 353 354 353 352 352 352 352 352 352 352 353 353 353 355 355 354 355 356 357 357 356 355 355 355 356 356 357 359 358 357 357 356 355 355 355 356 357 356 356 356 356 356 355 354 352 351 350 350 351 352 353 353 352 352 353 353 352 351 350 352 353 353 354 356 356 356 357 357 355
351 351 350 350 349 351 352 353 355 356 357 356 355 355 354 352 352 352 352 352 351 351 351 352 351 351 352 352 352 353 354 354 354 354 355 355 355 355 355 355 355 356 356 357 358 358 357 357 356 355 355 355 356 356 356 356 356 356 356 355 354 353 353 352 353 354 354 354 353 353 353 353 353 352 352 354 357 357 357 358 358 357 357 356 355
352 352 352 351 350 351 352 352 353 355 356 356 355 354 353 352 351 350 350 351 351 351 350 350 351 351 351 351 351 352 353 353 354 354 354 354 354 355 355 355 356 356 356 356 356 357 358 358 357 356 356 356 356 356 356 356 356 356 355 355 355 354 354 354 354 355 355 355 354 355 354 355 355 355 355 357 358 358 358 359 360 359 356 354 353
352 352 352 352 351 352 352 352 353 353 355 355 355 354 353 352 351 349 348 349 350 350 350 349 350 351 351 351 350 351 352 353 352 353 353 354 354 354 354 354 355 355 356 357 356 356 357 358 358 357 357 357 357 357 356 355 355 355 354 354 355 355 355 355 355 355 355 355 355 355 355 355 355 355 356 357 357 358 358 359 359 358 356 354 354
352 352 352 352 351 350 350 351 352 353 354 353 353 353 353 351 351 350 348 347 347 349 349 349 348 349 350 351 351 351 351 352 352 351 351 352 352 353 354 355 355 356 356 356 357 356 357 357 357 357 357 357 356 356 355 355 355 355 354 353 353 354 354 355 355 355 355 355 354 354 355 355 354 354 354 354 354 356 358 359 359 357 355 356 355
350 350 351 352 351 350 350 351 351 351 352 352 352 352 352 352 351 351 350 347 346 348 349 349 349 348 348 349 351 352 351 351 351 351 351 351 350 351 352 353 355 355 356 357 356 356 356 357 357 356 355 355 354 354 354 354 354 354 354 354 353 353 353 353 354 355 355 355 355 355 356 356 355 354 355 355 355 356 358 359 359 357 357 357 356
344 346 349 351 352 352 352 352 352 352 352 352 352 351 351 352 352 352 351 349 347 347 347 348 348 348 347 347 349 350 351 352 351 350 350 350 350 350 350 351 352 353 353 355 356 357 356 356 356 355 354 353 353 352 352 352 352 352 352 353 353 354 353 353 353 354 354 355 356 356 356 357 356 356 356 356 356 356 357 358 358 358 357 356 356
341 341 342 343 346 348 349 349 350 351 352 352 352 350 349 351 352 352 352 350 348 347 347 346 346 346 346 346 347 348 350 350 351 351 351 349 349 350 350 351 351 352 351 351 352 354 355 356 356 354 353 352 352 352 351 350 350 350 350 351 352 353 354 354 353 353 353 354 356 356 355 355 356 354 351 353 356 357 357 358 358 358 357 356 357
340 340 339 338 338 339 341 343 343 345 346 348 349 350 349 350 352 353 353 353 351 350 350 349 348 347 347 346 347 349 350 350 350 351 351 351 350 350 351 351 352 353 353 352 351 351 351 353 355 354 353 352 350 350 350 350 349 348 347 347 348 348 350 352 353 353 354 354 355 355 352 353 353 351 348 351 355 356 357 358 358 358 358 358 358
336 337 339 340 339 338 337 337 338 340 342 344 346 349 350 350 351 352 353 353 353 353 353 353 352 351 350 350 349 350 352 352 352 351 351 350 351 351 352 352 353 354 354 354 353 352 351 351 352 353 353 353 351 350 349 348 348 348 347 346 346 345 345 347 348 350 352 353 354 353 351 351 350 349 348 350 352 352 354 357 359 360 360 360 360
333 333 335 339 341 341 339 338 337 336 339 342 344 345 347 348 348 349 351 352 353 354 353 354 354 354 353 353 352 352 352 353 353 353 352 351 351 352 352 353 354 354 354 354 354 353 353 352 351 351 351 351 351 350 350 349 347 348 348 347 346 345 345 344 344 346 347 349 350 351 351 351 350 350 350 349 350 351 352 353 355 356 356 357 355
333 332 332 334 336 337 337 338 338 338 338 340 339 339 340 340 340 341 342 344 347 350 351 352 353 354 354 354 354 354 354 355 355 354 353 353 352 352 352 351 352 352 352 353 353 353 354 354 353 352 351 350 348 348 349 349 348 348 348 348 347 347 346 346 346 345 345 346 347 347 349 350 350 351 351 351 352 353 353 352 353 353 352 351 350
331 331 331 331 332 332 331 333 338 341 342 341 340 339 338 339 340 338 337 337 338 341 344 347 348 349 350 351 352 354 355 356 357 356 355 354 353 353 353 352 352 351 351 350 351 352 352 353 354 353 353 352 349 348 349 350 349 348 348 348 348 348 348 347 348 348 347 347 347 346 347 348 349 351 351 352 353 355 355 355 355 354 351 349 349
328 328 328 329 331 331 330 330 334 339 342 342 342 341 339 339 341 342 341 340 340 340 342 344 345 345 346 348 348 350 352 353 354 356 357 356 355 354 353 354 353 353 353 352 352 351 351 351 352 352 352 352 351 350 350 349 347 347 347 348 349 348 348 348 349 349 349 349 349 349 348 348 348 349 351 351 353 355 358 359 359 356 352 350 350
330 328 326 327 329 329 329 329 330 333 337 339 339 338 337 337 340 343 343 344 344 345 345 344 343 343 343 345 347 349 350 351 352 354 355 357 357 356 354 353 353 352 352 352 353 353 353 353 352 352 351 351 351 350 350 348 347 346 346 347 347 347 346 347 348 349 348 349 349 350 349 350 351 352 354 354 354 355 357 358 358 357 355 353 351
331 330 328 326 326 326 327 329 330 331 332 333 333 333 334 335 338 341 343 345 346 347 344 341 338 336 335 336 340 344 348 350 350 350 351 352 354 354 354 352 351 352 351 351 352 352 352 353 353 353 353 352 351 351 350 350 350 349 349 349 348 347 347 348 348 349 348 349 348 349 350 351 352 354 354 354 353 353 353 353 354 354 353 353 351
330 331 329 327 325 323 324 329 331 330 330 330 330 330 331 333 337 341 344 345 345 343 341 340 338 336 333 331 332 336 339 342 341 342 347 350 352 352 353 353 353 353 353 353 353 352 352 352 352 353 354 354 353 353 353 353 353 353 353 353 353 352 352 352 352 351 350 350 349 349 350 350 351 351 351 351 351 350 351 351 351 351 351 351 350
329 330 329 328 327 323 323 328 331 329 329 330 329 330 331 333 336 339 338 336 333 333 335 337 337 336 333 331 331 332 333 334 333 334 340 347 350 351 351 352 353 353 353 353 354 354 354 353 352 352 353 354 356 356 357 357 357 357 356 356 355 356 355 356 356 354 352 351 349 349 350 350 350 350 350 351 351 351 351 351 351 351 351 350 350
326 328 329 328 328 325 323 327 330 329 328 329 329 330 331 331 332 332 331 330 328 329 330 331 332 332 332 331 330 330 331 332 333 332 334 339 344 348 349 349 349 349 349 350 352 354 355 354 353 352 352 353 354 354 355 356 357 357 358 357 357 357 357 357 357 356 354 353 351 350 351 351 351 351 351 351 351 351 352 352 352 352 352 352 352
324 326 327 327 327 326 323 325 328 329 328 328 328 327 328 329 329 328 328 328 329 329 330 330 330 330 330 330 329 328 329 331 333 334 334 335 338 341 342 342 343 344 345 347 349 351 353 354 354 353 353 352 352 352 353 353 354 355 355 356 356 357 357 357 357 356 356 354 353 352 353 353 353 353 354 354 353 353 353 353 353 354 353 353 354
324 325 325 326 326 326 324 325 328 328 327 327 326 323 323 325 327 327 327 327 328 328 329 330 330 330 330 330 330 329 329 330 332 333 334 334 334 335 336 337 338 339 340 342 345 347 350 351 352 352 352 352 352 352 352 353 353 353 353 353 353 354 355 355 355 354 354 354 353 354 354 354 354 354 354 354 354 354 354 354 354 354 354 354 355
324 324 324 325 326 325 325 326 328 327 326 326 325 321 319 322 325 326 327 328 327 327 327 328 328 328 329 329 329 329 329 330 332 333 333 333 333 334 335 336 337 337 338 340 341 343 344 346 348 349 350 350 351 351 351 352 352 352 353 352 352 352 352 353 352 352 352 352 352 352 352 352 353 353 353 354 354 354 354 354 354 355 355 355 355
324 324 325 325 325 326 326 326 326 325 325 324 323 321 320 322 325 326 327 327 327 326 326 325 324 324 326 327 328 329 329 330 332 333 333 333 333 333 334 335 335 335 335 336 337 339 340 342 344 345 346 347 347 347 348 348 349 350 350 351 352 352 352 352 351 351 352 351 350 350 350 350 350 351 352 352 353 354 354 355 354 355 355 355 355
325 325 326 325 325 325 325 324 324 323 323 323 322 322 321 323 324 324 325 325 324 323 322 321 320 322 324 326 327 328 329 331 331 331 332 333 333 333 333 333 332 332 332 332 333 335 336 338 340 342 343 343 343 343 343 344 345 346 347 348 350 351 351 350 350 351 351 351 350 350 350 350 349 350 351 352 353 353 354 354 355 355 355 355 354
325 326 326 325 324 324 324 323 323 323 323 324 324 323 322 322 322 323 323 322 321 319 318 319 321 323 325 327 328 328 329 330 330 329 330 332 332 332 331 331 330 330 330 329 329 330 332 334 337 340 342 342 342 342 343 343 344 345 345 346 348 349 350 350 350 350 351 350 350 350 350 350 350 350 350 351 352 353 353 354 355 355 355 355 354
323 324 324 324 324 323 323 323 323 323 323 324 323 323 322 321 321 321 321 320 318 316 317 319 322 324 325 326 328 329 330 330 329 329 329 331 331 331 330 329 328 327 326 327 329 331 334 336 337 339 341 342 343 343 344 345 345 346 346 347 348 349 349 350 350 350 350 350 351 350 350 350 351 351 351 351 351 352 353 354 355 355 355 354 354
320 322 323 323 323 322 322 322 322 322 322 321 321 320 320 320 320 320 319 318 317 317 318 319 321 323 325 325 326 327 328 328 328 329 330 330 330 329 328 327 325 324 324 328 331 333 335 336 337 339 340 341 342 343 344 345 346 346 347 348 348 348 349 349 351 351 351 351 351 351 351 351 351 351 351 352 352 352 353 353 354 354 354 354 354
317 320 321 320 320 320 320 320 320 320 319 319 319 319 319 318 318 319 319 318 317 318 320 319 320 322 324 324 326 328 328 327 327 327 327 326 326 325 325 325 324 323 325 329 332 333 334 335 337 338 339 340 341 342 342 344 345 346 347 348 348 349 349 350 351 351 351 352 352 351 352 352 352 352 353 353 353 353 352 353 353 353 353 353 353
315 317 317 316 316 317 317 317 317 318 318 318 318 318 318 318 318 318 319 319 319 320 320 319 320 322 323 323 326 327 325 324 324 323 322 322 322 322 322 323 322 323 325 329 331 330 330 331 332 333 334 335 335 335 336 337 338 340 343 345 347 348 350 351 351 352 352 353 353 352 352 352 352 352 352 352 352 353 352 352 352 352 353 353 353
313 314 314 314 313 314 314 314 315 316 316 317 317 317 317 317 317 317 318 319 320 321 321 320 320 321 321 323 325 324 322 321 322 321 321 321 321 321 321 322 322 324 325 326 326 325 324 324 324 325 326 328 328 328 329 330 331 333 335 336 338 340 343 346 349 351 352 353 353 353 353 353 353 352 351 351 351 351 352 352 352 352 352 352 352
312 312 312 312 311 312 312 312 312 313 314 314 315 315 315 316 316 317 318 319 320 320 321 320 320 319 320 321 322 321 320 320 320 320 320 320 320 320 320 321 322 323 323 322 322 321 319 318 318 318 318 320 321 322 323 324 327 329 329 329 330 331 334 337 340 344 348 351 353 354 353 352 353 352 351 351 351 351 351 351 351 352 352 351 351
310 310 311 311 310 310 310 310 310 311 312 313 313 313 314 315 315 317 318 319 319 319 319 319 319 318 319 320 320 319 319 318 318 318 319 319 319 318 319 319 319 319 318 318 318 317 316 314 314 313 314 314 315 316 318 320 323 324 325 325 326 327 329 332 334 337 340 344 349 353 353 352 352 352 351 351 351 351 351 351 351 351 351 351 351
309 309 310 310 309 309 309 309 309 310 311 312 312 313 313 314 314 315 316 317 318 318 317 318 318 318 318 318 318 318 318 318 318 318 318 318 318 317 317 316 315 315 315 315 315 314 313 312 311 311 311 311 312 313 314 316 318 319 320 321 322 323 326 328 331 333 334 337 341 345 348 350 351 351 352 352 352 351 351 352 351 351 351 351 351
308 307 308 308 308 308 308 309 310 311 311 311 311 311 311 312 313 314 315 316 316 316 316 316 316 316 317 317 317 318 318 318 317 317 317 316 316 315 315 314 314 313 313 312 312 312 311 310 309 309 309 309 310 311 311 312 313 314 316 317 319 320 322 324 326 328 330 332 335 337 339 341 344 346 348 351 352 353 352 352 352 351 351 351 351
307 306 306 307 307 307 308 309 310 310 310 310 310 309 310 311 312 314 314 314 314 314 315 315 315 315 316 316 317 318 318 317 316 316 316 315 314 314 314 313 313 312 312 311 311 310 309 308 308 307 307 307 308 309 309 309 310 311 312 313 315 316 318 320 322 324 326 328 331 332 332 333 335 336 339 343 346 348 350 351 352 351 351 351 350
306 305 305 305 305 306 307 307 308 308 308 307 308 308 309 311 312 312 312 312 312 313 313 314 314 315 315 315 316 316 316 315 315 315 315 314 313 313 313 313 312 311 311 310 310 309 308 307 307 306 306 306 307 307 306 307 307 308 309 310 312 313 315 316 318 320 322 323 323 323 324 326 327 328 331 335 338 339 342 346 348 349 349 349 349
304 304 304 304 304 305 305 305 306 306 306 306 307 308 309 310 310 310 310 310 311 311 312 313 313 313 314 314 314 314 313 314 314 315 314 312 312 312 312 312 311 310 310 309 308 307 307 306 305 305 305 306 306 305 305 305 305 306 307 308 309 311 312 313 314 316 316 317 316 316 316 318 320 323 325 329 332 334 336 339 342 345 347 348 348
303 303 303 303 303 302 303 303 304 304 305 306 307 308 309 309 309 308 309 309 310 311 311 312 312 312 313 312 312 312 312 313 313 313 312 311 310 310 310 310 310 309 308 308 307 306 305 305 304 304 305 305 304 304 304 304 304 304 305 306 307 308 310 311 311 311 311 310 311 312 313 313 314 316 318 321 324 328 331 334 337 340 343 345 347
301 300 300 301 301 301 301 302 303 305 306 307 307 308 308 307 307 307 308 308 309 310 310 310 311 311 311 311 311 311 311 312 311 311 310 309 309 309 308 308 308 308 307 306 305 305 304 304 304 304 304 303 303 303 302 302 302 301 302 302 304 305 306 307 307 306 306 305 306 308 310 310 311 311 313 315 318 322 326 329 332 335 338 340 342
298 298 299 300 300 301 301 302 304 305 306 306 306 306 306 306 306 306 306 307 308 309 309 309 309 309 310 310 310 310 310 310 310 309 309 308 307 307 307 307 306 306 306 305 304 304 303 303 302 302 302 302 301 301 302 301 300 299 299 299 301 302 303 303 302 302 302 302 303 304 306 308 309 309 310 312 315 318 321 324 327 330 332 334 337
298 299 300 300 301 301 302 303 304 305 305 305 306 306 305 305 305 305 306 306 306 307 307 308 308 308 308 308 308 308 308 308 308 308 307 307 306 306 306 305 305 305 304 304 303 302 302 301 301 301 300 300 300 301 301 301 300 299 298 298 299 299 299 299 299 299 300 301 302 303 305 307 308 309 309 311 313 315 317 319 321 324 326 328 330
300 300 300 301 301 302 303 303 304 304 304 304 304 304 304 304 304 304 304 305 305 305 306 306 306 307 307 307 307 307 307 307 307 306 306 305 305 305 305 304 304 303 303 302 301 301 300 300 300 300 300 300 300 300 300 300 299 298 297 297 297 298 298 298 299 300 302 302 303 304 306 307 309 310 310 310 310 312 314 316 318 320 322 324 326
300 300 300 301 301 302 302 302 302 302 302 302 303 303 303 303 303 303 303 304 304 304 304 305 305 305 305 305 305 306 305 305 305 305 305 304 304 304 303 303 303 302 302 301 300 299 299 299 299 299 299 299 299 298 298 298 297 296 296 296 297 298 298 299 301 302 303 304 304 306 307 308 310 311 312 312 312 312 313 315 317 318 320 322 324
299 299 300 300 301 301 301 301 300 300 301 300 301 301 301 301 302 302 302 302 303 303 303 304 304 304 304 304 304 304 304 304 304 303 303 303 303 303 302 302 301 301 301 300 299 299 299 299 299 299 298 298 296 295 294 294 294 294 295 296 297 297 298 300 302 304 304 305 306 307 309 310 311 313 313 314 314 314 314 315 317 319 320 322 324
299 299 299 299 299 299 299 299 299 299 299 299 299 300 300 300 300 300 300 301 301 302 302 303 303 303 303 303 303 303 303 302 302 302 302 302 302 302 301 301 301 300 300 299 299 299 299 299 298 298 297 296 295 293 292 292 292 293 293 294 295 297 298 300 303 305 306 306 307 309 309 310 311 313 314 314 315 315 315 316 318 320 321 322 324
298 297 297 297 298 298 298 298 298 298 298 298 298 299 299 299 299 299 299 300 300 300 301 302 302 302 302 302 302 301 301 301 301 301 301 301 301 301 300 300 300 299 299 299 299 299 299 298 297 297 297 296 294 292 292 291 291 291 292 293 295 297 298 300 303 306 307 308 309 309 309 309 310 312 313 313 313 314 315 316 318 319 320 321 322
Wind_Speed
30 31 31 30 28 27 27 27 27 25 23 23 23 23 23 23 22 20 20 20 19 19 20 20 19 19 19 19 19 18 17 17 16 16 18 18 16 16 15 14 16 17 15 14 14 13 14 14 14 12 11 11 11 11 11 10 8 7 8 9 9 8 8 9 9 12 14 12 10 9 8 9 9 8 7 6 5 7 8 10 12 14 16 17 17
23 24 25 26 27 28 27 26 26 26 25 24 24 24 23 23 23 21 21 21 20 20 20 20 20 19 19 20 20 18 17 17 17 17 17 18 17 16 16 14 15 16 15 14 15 14 14 14 14 13 14 14 14 13 14 13 11 10 10 12 13 12 12 12 12 12 15 15 12 10 10 9 10 10 10 9 10 12 13 13 13 14 15 17 17
21 20 19 20 20 22 25 27 26 26 26 26 26 25 24 24 24 24 23 22 22 22 22 21 21 21 21 20 20 20 18 18 18 18 17 18 18 18 17 16 16 17 17 17 17 16 16 16 16 14 14 16 17 15 15 16 15 14 14 13 13 14 14 15 15 15 16 18 16 14 14 13 12 12 12 12 14 15 15 15 13 13 14 15 18
15 15 15 18 19 16 16 23 27 27 27 27 27 26 26 25 25 25 24 23 24 24 24 22 22 23 23 22 21 21 20 20 19 20 19 18 18 18 18 19 18 17 18 18 18 18 18 18 19 17 14 15 17 17 15 16 15 15 16 16 15 15 14 14 16 17 18 19 19 19 17 16 15 15 15 16 17 17 16 14 13 13 14 16 18
14 14 9 12 20 19 13 15 23 29 30 28 28 27 26 25 25 26 25 24 24 25 25 25 23 23 25 24 23 22 21 21 22 22 21 20 19 18 18 19 20 19 19 19 19 18 18 19 20 19 17 15 16 17 17 16 15 14 15 17 17 17 16 15 16 17 18 20 22 21 18 17 17 18 17 18 19 18 15 13 13 14 16 16 18
17 19 13 9 13 19 16 13 17 25 30 29 27 27 25 23 24 26 26 25 24 24 26 27 26 25 26 25 24 23 21 20 22 23 23 23 22 20 19 19 21 21 20 20 20 20 19 19 19 19 19 19 19 19 18 17 17 17 17 16 16 16 17 17 16 16 17 19 21 20 18 18 18 19 18 17 18 18 17 16 15 15 16 18 20
14 16 16 13 12 13 17 19 17 20 25 26 25 25 23 22 22 24 27 27 26 25 26 28 29 28 27 26 25 24 23 22 22 23 24 24 24 24 22 21 21 21 21 21 21 21 21 20 19 18 19 20 21 20 19 19 19 19 18 18 17 17 16 16 16 16 16 17 19 19 19 19 18 19 19 18 17 18 18 19 19 18 19 21 23
17 17 17 17 16 14 17 21 18 16 20 22 22 23 22 21 19 20 23 26 27 27 26 27 29 30 30 29 27 26 25 24 24 25 25 25 25 26 25 24 23 23 23 22 22 21 22 22 21 20 20 21 21 21 20 20 20 20 20 19 19 19 18 17 17 17 16 17 18 18 18 18 18 20 20 19 18 18 17 17 19 21 22 23 24
19 18 18 17 16 14 15 17 15 15 18 20 20 22 21 20 18 18 19 22 25 27 26 26 27 29 31 31 29 28 28 27 26 26 26 26 26 26 26 26 25 24 24 24 23 23 23 23 23 23 22 22 22 22 22 21 21 21 21 20 21 21 21 20 19 19 19 18 19 19 18 20 21 22 22 21 21 20 19 17 19 23 25 25 23
20 19 17 15 14 13 11 13 14 15 16 17 19 19 19 18 16 16 17 19 21 25 27 26 25 26 29 31 32 31 30 30 28 27 27 27 27 27 27 27 26 25 25 26 26 26 25 25 25 25 25 25 24 24 23 23 23 24 23 23 23 23 23 23 22 22 21 20 21 20 19 21 24 24 24 25 24 22 21 20 22 24 24 22 19
19 18 17 15 14 13 10 10 12 13 13 13 15 16 17 16 15 15 16 16 17 19 23 25 25 23 24 27 31 32 32 32 30 29 29 29 29 29 28 29 28 27 27 27 28 28 27 27 26 26 26 26 26 25 25 25 25 26 26 26 26 25 25 25 25 24 23 22 23 22 20 23 27 26 26 26 25 23 22 22 23 24 21 16 14
18 17 16 15 15 14 11 8 9 10 10 9 7 8 10 11 13 15 15 15 15 16 18 21 23 23 22 21 24 28 32 33 32 31 31 30 30 30 30 30 30 30 30 29 29 29 29 29 28 27 28 27 27 27 27 27 27 28 29 29 30 30 28 27 27 26 25 25 24 24 24 25 27 28 27 27 26 24 24 23 22 22 20 17 16
18 17 15 14 13 12 9 8 8 10 10 8 6 3 3 5 7 9 12 14 15 15 15 17 18 20 20 19 19 22 26 30 32 32 32 32 32 32 31 31 30 30 31 31 31 31 30 30 30 30 29 29 29 29 28 28 28 29 30 30 32 33 33 32 31 29 28 28 27 27 27 27 27 29 29 27 25 24 23 24 24 23 22 22 22
17 16 15 15 13 10 7 5 6 7 8 9 10 7 3 1 2 3 5 8 10 12 14 15 16 17 17 17 17 17 18 23 28 32 33 33 32 32 32 32 32 31 31 31 31 32 32 32 32 32 31 30 29 29 29 29 29 29 30 29 30 31 32 34 35 34 33 32 31 32 32 30 30 31 30 29 27 26 26 26 26 25 24 24 24
17 15 14 13 12 12 11 9 8 8 7 6 7 8 7 5 4 3 2 2 2 5 7 10 12 14 14 15 15 15 15 16 19 25 30 32 33 33 33 32 32 32 32 32 32 32 33 33 33 33 33 32 31 30 30 30 31 32 32 31 30 30 30 31 32 34 35 36 36 37 36 35 35 34 32 31 30 30 30 28 26 26 27 27 28
18 18 16 12 10 11 11 11 11 11 10 8 8 7 6 6 5 4 3 3 2 1 2 3 5 7 9 10 11 13 14 14 14 15 19 23 26 30 33 34 34 33 33 33 33 33 33 34 34 35 35 34 33 32 31 31 32 33 34 34 34 34 33 31 30 30 32 34 37 38 38 38 37 36 35 34 32 32 31 29 28 28 28 26 27
17 18 17 15 12 11 12 11 9 10 12 13 12 10 8 7 7 6 5 5 4 5 5 5 5 5 5 6 7 9 11 13 14 13 13 14 16 20 24 29 31 33 34 34 34 34 34 34 34 35 36 36 35 34 33 32 33 34 35 35 35 36 37 36 34 32 32 32 34 35 36 37 38 38 38 36 33 33 31 29 29 29 25 19 20
16 15 15 14 13 13 15 14 9 7 10 13 12 11 10 9 9 8 8 8 8 7 8 8 8 8 8 7 8 9 9 10 11 12 12 12 13 14 16 19 23 26 28 30 32 33 34 35 34 34 35 36 36 35 35 34 34 35 36 36 34 36 39 38 35 34 34 33 34 34 34 36 37 37 37 36 33 32 32 32 31 28 23 19 20
14 14 13 12 12 13 14 15 12 7 7 9 10 10 12 12 12 11 10 11 11 10 10 10 11 11 10 9 8 8 9 9 10 11 11 11 13 14 16 18 21 22 23 24 25 28 30 32 33 34 35 36 36 36 35 34 33 33 33 33 32 35 38 35 30 30 32 33 34 35 35 36 36 36 35 35 32 31 33 35 34 31 28 26 26
10 13 13 10 10 12 12 14 14 11 9 9 9 11 12 13 12 12 12 13 14 14 14 14 14 14 13 11 9 8 8 9 10 11 13 13 13 13 14 17 20 21 22 22 23 24 26 27 29 31 33 35 36 37 36 35 33 32 32 31 31 35 36 31 27 28 29 30 32 34 35 36 35 35 34 34 33 32 32 33 33 33 32 31 30
6 9 13 12 10 11 12 13 14 13 11 11 12 12 13 14 13 13 13 13 15 16 16 16 17 16 16 14 12 9 9 10 12 13 14 15 15 15 14 15 16 18 20 20 22 23 24 25 26 28 29 30 32 34 36 35 34 34 35 35 36 37 37 34 32 31 30 31 31 32 33 35 34 34 33 34 34 34 33 33 33 33 32 32 31
5 4 9 12 11 11 12 13 14 14 13 13 13 14 15 15 15 15 14 13 15 16 16 16 16 17 18 17 15 13 12 13 14 15 15 13 13 14 15 15 15 16 18 20 21 22 23 23 24 24 25 26 27 29 31 32 32 34 35 36 36 37 37 36 36 35 33 33 33 32 33 33 32 32 32 33 34 34 34 34 33 32 32 33 32
7 4 5 9 11 13 13 13 14 14 14 14 14 15 17 17 17 18 18 18 19 19 18 18 18 19 20 19 18 17 16 16 16 16 15 13 11 11 12 14 15 16 18 20 21 22 22 22 22 22 23 23 24 25 26 27 28 30 32 33 34 35 35 36 36 34 32 31 31 32 33 32 32 32 32 32 34 34 34 34 33 33 33 34 34
9 8 5 4 7 12 12 12 13 13 13 13 15 17 18 18 19 20 20 21 22 21 21 21 20 20 21 22 22 21 20 19 17 15 14 14 13 12 12 13 14 17 19 20 20 20 21 21 22 23 24 24 25 25 25 25 26 27 27 29 30 31 32 33 33 31 29 27 27 29 31 31 31 32 33 34 36 36 35 34 34 34 34 34 34
9 9 8 5 5 8 10 11 11 11 11 13 15 17 18 19 21 22 22 22 23 22 22 22 22 21 22 23 24 24 23 21 19 17 16 16 15 15 16 17 18 18 19 20 20 19 19 20 21 23 24 24 25 26 27 28 28 28 28 28 28 29 29 29 29 28 27 28 27 29 31 31 31 33 34 35 35 35 35 34 33 33 32 31 32
9 9 9 7 4 4 7 9 8 8 9 11 13 16 18 18 19 20 21 21 22 22 22 22 22 22 22 23 24 25 24 23 20 18 19 19 19 18 19 20 20 21 21 21 21 20 19 19 20 21 21 21 21 22 24 25 26 27 29 30 31 32 31 31 30 29 30 31 31 33 35 34 34 34 34 34 34 35 34 32 32 32 31 30 31
9 9 10 9 6 3 4 4 4 6 8 10 12 16 17 16 17 18 19 20 20 21 21 21 21 21 22 23 25 26 25 24 22 20 21 22 22 21 20 20 20 21 22 22 22 22 22 22 21 21 21 21 21 21 22 23 23 24 26 27 29 32 33 33 33 33 34 35 35 36 37 35 34 34 33 33 33 34 33 32 32 32 31 29 30
9 10 10 9 6 3 2 3 4 6 8 9 11 14 14 14 15 15 16 17 19 19 20 21 21 21 21 23 25 25 25 24 22 22 22 22 21 22 22 22 22 23 23 24 24 24 24 24 24 24 24 24 24 24 25 25 24 24 25 25 26 27 29 30 30 31 32 32 33 34 33 32 31 32 32 33 34 34 33 32 32 33 31 28 27
9 10 10 9 8 6 6 6 6 7 8 9 9 10 10 12 13 14 13 14 16 17 19 20 20 20 20 20 22 24 24 22 21 21 21 20 19 21 22 23 24 25 25 25 26 25 25 25 25 24 24 23 23 24 24 24 24 24 24 23 23 24 26 27 28 29 29 29 30 30 29 27 28 29 29 31 33 33 32 31 32 32 30 27 27
11 10 10 10 9 8 8 8 8 8 9 8 8 7 7 9 11 13 14 15 17 19 20 18 17 18 19 19 19 20 21 20 20 21 21 20 19 19 20 22 24 26 27 27 26 25 24 24 23 22 21 20 21 22 22 23 23 23 23 22 22 22 24 26 27 28 29 30 32 31 28 26 25 25 26 28 31 32 31 31 32 32 29 26 27
14 13 11 9 8 8 9 9 9 9 9 9 9 10 11 11 12 13 14 17 20 22 21 18 15 16 19 21 21 18 16 17 21 22 21 19 19 19 20 23 26 28 28 25 24 22 22 22 22 21 20 18 18 20 21 22 22 22 23 23 22 22 24 26 27 27 28 30 31 32 30 27 26 26 26 27 29 30 31 31 30 30 29 27 27
15 14 13 11 9 10 10 10 11 11 11 12 14 15 16 17 18 17 18 19 21 20 20 20 18 16 18 22 24 21 18 18 20 20 18 18 19 21 24 27 29 29 26 23 22 22 22 21 20 20 19 18 18 20 22 23 23 23 23 23 23 23 25 27 28 28 28 28 29 30 29 27 26 27 27 28 29 30 30 30 29 28 28 28 29
16 16 14 12 11 11 12 13 12 13 14 15 17 18 18 19 20 21 22 23 21 19 20 22 21 19 19 22 24 21 17 16 16 17 18 19 22 24 26 28 29 28 25 23 23 24 23 22 21 20 20 20 20 21 22 23 23 24 24 24 25 27 28 29 29 29 29 29 29 29 28 27 27 27 28 28 29 29 29 29 28 28 28 28 31
14 15 14 13 12 13 13 14 13 13 14 15 17 18 19 19 19 20 22 24 23 21 22 23 22 20 21 22 20 18 18 18 19 20 22 23 24 26 27 28 28 27 24 23 24 24 24 24 23 23 23 23 22 22 22 23 23 23 23 23 24 26 28 30 31 31 31 30 29 29 29 29 29 29 29 29 27 27 27 27 27 27 29 30 31
13 13 13 13 13 13 14 14 14 14 14 15 16 17 19 19 19 20 21 22 22 21 21 22 21 20 21 19 17 18 21 22 22 22 24 25 26 28 28 28 27 25 24 22 21 22 23 23 24 24 24 24 24 23 23 24 24 24 24 25 25 25 25 26 27 30 33 34 33 31 30 30 31 31 30 29 27 26 26 28 29 30 31 30 30
13 14 13 13 14 14 14 15 15 15 15 16 16 17 18 19 20 21 21 21 21 20 19 19 19 19 19 17 17 20 23 23 23 23 23 24 25 26 25 23 22 22 22 21 21 21 22 23 24 25 25 25 25 25 25 24 24 24 24 25 26 27 27 26 27 28 29 32 35 35 32 31 31 31 30 29 28 27 28 30 31 32 32 31 31
11 12 13 13 13 14 15 16 16 15 15 16 16 18 18 19 19 20 20 20 20 20 20 20 20 19 18 18 19 22 24 23 23 23 22 23 24 23 20 19 18 19 20 21 21 22 23 24 24 24 25 26 26 26 26 25 24 24 25 26 26 26 26 27 27 27 27 26 27 29 31 32 33 32 29 28 28 28 29 31 31 32 33 34 33
9 10 11 12 13 14 15 15 15 14 15 16 16 17 17 18 19 19 19 20 20 20 20 21 21 20 20 20 22 23 22 21 21 21 21 21 20 19 18 17 17 18 18 19 19 20 22 24 24 22 23 24 26 26 25 25 25 25 25 26 27 26 26 26 26 27 27 27 24 22 23 27 30 32 32 31 30 30 31 31 31 31 32 32 31
9 10 11 12 13 14 15 15 15 14 15 15 16 16 17 18 19 18 18 19 20 20 21 21 21 21 22 23 24 23 20 18 18 18 16 15 15 15 16 17 18 18 18 17 17 18 20 23 22 21 22 23 23 23 24 24 25 25 25 26 27 26 25 25 25 26 27 27 26 24 24 24 25 26 27 29 31 32 33 33 32 31 30 29 30
9 11 12 12 13 14 15 15 14 15 15 15 15 16 17 18 18 17 18 19 20 20 21 20 21 22 23 23 24 22 20 19 18 16 12 10 11 13 16 18 20 20 19 18 18 18 20 22 21 21 21 21 21 21 21 23 24 24 25 25 26 26 26 24 24 24 24 24 25 25 26 26 27 28 27 26 25 27 28 29 31 30 29 29 30
7 9 11 12 13 13 14 14 14 15 16 16 16 16 17 17 17 18 19 19 20 20 20 20 21 22 23 22 21 21 21 22 22 16 11 9 11 14 17 20 21 20 19 19 20 20 20 21 22 21 20 19 19 19 20 21 22 23 23 24 24 25 25 23 23 23 23 23 24 26 27 29 29 29 30 30 29 27 25 25 25 26 27 29 29
6 7 8 9 11 12 13 14 15 16 16 16 16 16 16 16 17 17 18 19 19 20 21 21 21 22 22 21 21 21 22 22 20 16 12 12 13 14 17 19 19 18 18 19 20 20 20 21 23 23 20 17 17 19 20 21 22 22 23 23 23 23 23 22 22 22 22 25 28 30 31 32 32 31 31 31 30 28 27 26 26 26 26 26 27
7 7 7 8 10 11 13 15 16 16 16 16 16 15 14 15 16 18 19 19 20 20 21 21 21 21 21 21 21 21 21 20 18 16 15 15 15 15 16 17 17 17 19 19 20 20 21 21 22 22 19 17 18 20 21 21 21 21 22 23 23 23 22 22 21 23 26 29 32 34 35 35 34 32 31 30 28 27 26 26 26 27 26 25 25
10 10 9 9 10 11 12 14 15 15 14 14 14 14 14 15 17 18 19 19 20 20 21 21 21 21 21 21 21 20 19 19 18 18 17 16 17 17 17 16 16 17 19 21 21 21 21 21 21 20 19 19 21 21 20 19 20 21 23 24 24 23 23 22 22 25 29 32 34 35 36 36 34 32 30 29 27 26 26 26 26 26 27 27 26
13 12 10 10 10 11 12 12 13 12 12 13 14 14 14 15 16 16 17 18 19 19 20 21 21 22 22 21 20 20 20 20 20 20 19 18 18 17 16 16 18 19 21 22 23 23 22 21 20 20 21 21 21 20 18 18 21 23 23 23 23 24 24 24 25 28 31 33 34 34 34 35 35 33 31 28 27 27 27 27 26 26 26 26 26
11 9 9 10 10 11 11 11 11 11 12 13 13 13 13 14 15 15 16 17 18 19 20 21 21 21 21 21 21 21 21 21 21 21 20 19 17 16 16 18 19 21 22 23 23 22 22 21 20 20 19 19 19 19 18 20 23 24 24 22 22 23 24 26 28 30 32 33 33 33 33 33 34 34 30 27 26 27 28 29 29 27 26 25 26
7 8 9 10 10 10 11 10 10 11 12 11 11 12 13 14 14 15 17 17 18 18 19 19 20 21 21 22 22 22 22 21 21 20 19 19 18 18 19 19 20 21 22 22 21 21 21 20 19 18 17 17 18 18 19 22 24 25 24 22 22 22 24 26 28 29 30 30 31 31 31 32 33 34 32 30 28 27 28 29 29 29 27 26 26
7 8 9 9 10 10 10 10 10 11 11 11 12 13 13 14 15 16 18 18 17 18 18 19 20 20 20 21 21 22 21 21 20 19 19 20 20 21 21 20 20 21 21 20 19 18 18 17 17 16 15 15 16 18 20 23 24 24 23 23 22 23 24 26 27 27 28 28 28 29 29 30 31 32 32 32 31 29 28 27 27 27 27 27 27
8 8 9 9 9 9 10 10 11 11 11 11 12 12 12 13 15 16 17 18 18 18 19 19 19 20 21 21 21 21 21 20 20 20 20 21 21 21 21 20 20 20 19 17 16 15 15 15 15 14 14 15 17 18 21 22 22 22 23 23 24 25 26 26 26 25 25 26 26 26 26 27 29 29 29 29 29 29 27 26 26 27 27 27 26
7 8 9 9 8 9 11 11 12 12 12 13 13 13 12 13 14 15 16 17 19 19 20 20 20 20 21 20 20 19 19 20 20 20 20 20 20 21 20 19 19 18 16 15 15 15 15 14 12 11 13 16 18 19 19 20 21 22 23 24 25 25 26 25 24 23 22 23 23 23 23 25 27 27 27 27 26 26 26 25 25 25 26 25 25
8 9 10 10 9 10 11 11 11 12 13 14 14 15 15 15 16 17 17 17 19 20 21 21 20 19 18 17 17 18 19 19 19 19 19 19 18 18 18 17 17 16 15 15 15 15 13 12 11 12 14 17 18 18 19 19 20 21 22 23 24 25 24 24 23 21 20 19 20 20 22 23 24 24 24 23 22 23 24 24 24 24 24 24 25
Wind_Direction
199 201 204 207 209 211 214 216 216 217 216 212 210 209 209 211 210 210 213 216 217 216 215 214 215 217 220 220 218 218 222 225 227 226 224 227 230 231 230 231 234 234 238 243 241 244 248 246 249 256 263 264 260 262 264 270 274 268 272 272 254 245 256 256 254 270 281 283 281 289 296 296 293 290 299 312 319 320 316 311 308 305 306 307 306
195 198 201 204 209 212 215 218 220 221 221 220 217 216 216 216 212 210 213 216 217 216 214 215 217 217 218 218 217 219 224 227 228 227 225 226 229 231 229 229 234 234 237 240 238 243 248 246 248 255 259 260 259 261 262 263 266 262 261 266 263 256 256 259 259 265 277 280 281 287 293 297 297 290 291 300 304 306 308 307 303 297 297 302 305
194 194 195 198 205 212 217 219 222 223 222 222 223 221 221 221 218 217 217 216 217 217 216 219 221 220 219 218 217 220 225 228 228 228 229 229 230 230 228 229 235 237 238 240 239 241 244 244 248 255 258 257 255 257 260 262 262 260 259 263 269 269 268 268 265 260 268 279 284 288 292 296 299 299 301 304 306 306 307 308 304 295 293 300 305
197 195 199 202 200 207 224 225 224 226 225 224 224 223 223 224 222 223 222 219 219 219 218 219 220 220 220 219 219 222 227 229 229 230 233 233 232 232 229 229 235 239 241 243 241 240 240 241 245 250 255 255 252 253 258 261 262 260 259 260 265 273 278 278 275 268 265 272 281 286 289 291 295 302 307 309 310 309 308 308 303 296 296 300 303
201 200 210 218 205 201 220 237 231 228 226 226 224 224 226 227 225 225 224 222 222 221 219 219 219 219 219 219 220 223 226 228 229 232 235 236 235 235 233 232 234 236 241 245 245 241 238 239 242 245 250 252 250 252 256 258 258 259 261 261 263 269 274 278 284 281 270 267 275 282 284 283 289 298 304 308 312 310 307 304 299 297 298 300 302
193 197 205 221 208 198 205 228 237 230 226 226 227 226 229 230 228 226 225 224 225 226 223 221 221 220 219 221 222 223 224 224 226 232 235 237 237 236 236 237 236 237 240 245 247 245 242 242 244 243 244 247 248 253 258 256 253 257 260 260 263 268 269 270 279 286 279 271 273 276 276 278 285 294 300 306 310 310 308 304 300 300 302 304 306
156 172 184 189 191 191 198 209 219 221 218 219 222 223 226 229 229 227 224 224 226 229 228 225 225 224 224 225 226 225 224 224 226 230 234 235 236 236 236 238 239 240 242 244 246 246 245 245 245 243 241 242 246 251 256 255 253 255 256 257 261 264 266 267 271 277 278 273 271 273 276 280 285 291 297 301 301 301 303 303 301 304 305 307 311
141 146 154 164 178 191 201 204 205 208 208 210 214 216 218 224 227 226 225 224 225 227 229 229 228 228 228 229 229 228 226 226 227 229 232 233 233 234 236 237 239 242 244 246 247 247 247 246 245 246 244 244 246 249 252 254 253 253 254 255 257 258 260 263 266 268 269 268 269 273 279 284 287 289 292 294 291 291 296 297 296 299 303 305 309
136 140 141 149 163 179 197 203 202 206 209 211 213 213 214 218 221 224 226 226 226 227 228 230 231 230 230 231 232 231 229 229 229 230 231 232 232 234 236 237 240 243 245 247 250 251 251 249 248 250 251 251 251 252 252 252 251 252 253 254 253 253 255 258 260 262 262 262 266 271 276 280 282 283 285 285 284 288 293 291 289 294 299 302 306
122 126 127 130 138 148 170 187 188 194 205 212 216 216 216 218 220 223 224 225 227 228 228 230 231 232 233 233 233 232 232 233 233 234 234 234 235 235 236 238 240 243 246 248 250 252 253 253 254 256 257 257 256 255 255 255 254 254 256 256 254 252 252 254 256 258 259 258 262 266 268 271 275 277 278 281 283 284 285 285 287 293 297 300 303
110 110 109 110 116 126 146 168 173 175 185 201 214 218 217 217 219 221 222 221 222 224 226 228 229 232 234 235 235 234 234 236 237 238 238 238 239 239 239 240 240 242 246 248 250 252 252 252 255 257 259 260 259 259 260 260 259 259 259 259 258 256 254 253 254 255 255 255 258 261 260 263 271 274 275 279 282 280 280 282 285 290 294 294 296
102 102 104 106 107 112 124 141 147 149 157 171 192 209 214 216 219 222 224 223 221 221 224 227 231 233 235 237 239 239 239 240 240 242 243 242 242 242 242 243 243 244 246 248 251 253 253 253 254 256 259 260 260 262 263 265 266 265 264 264 262 261 259 257 256 256 255 254 256 258 258 261 268 273 275 276 279 280 281 281 280 282 286 287 286
94 91 91 93 98 104 109 109 109 116 124 118 104 123 199 210 209 215 223 228 230 231 232 234 237 240 240 240 245 247 247 244 242 243 245 246 246 244 244 246 247 248 248 249 250 253 254 255 256 257 260 261 262 263 263 266 269 270 270 269 266 265 263 261 260 259 259 259 257 259 262 264 266 272 278 279 279 280 281 280 279 279 282 283 283
85 82 78 78 81 86 89 88 82 84 91 89 80 75 69 103 148 170 200 218 230 239 243 246 249 252 254 251 250 254 256 252 247 244 244 247 249 247 247 248 249 250 252 252 252 253 254 255 256 258 260 261 262 261 262 265 269 271 273 273 271 270 267 264 262 260 259 258 257 260 265 267 267 273 280 280 278 279 280 280 282 284 283 283 284
73 72 73 76 78 74 66 61 55 48 51 69 77 71 54 45 61 76 97 143 207 240 250 256 257 259 263 264 262 262 263 262 255 248 245 247 249 249 248 248 248 250 252 254 256 256 256 256 257 259 261 261 261 260 261 265 268 271 274 274 275 276 273 270 267 264 261 259 259 261 265 268 270 273 278 279 279 282 282 279 280 282 281 283 284
62 61 63 67 72 66 55 53 59 58 52 51 56 55 39 25 32 39 42 55 62 35 335 299 286 275 271 276 280 278 276 276 273 262 252 249 249 249 249 249 248 249 250 253 256 258 260 260 259 260 262 263 264 263 263 265 266 268 270 272 275 276 275 275 274 272 270 267 266 267 268 271 273 274 277 278 279 283 283 279 278 278 277 281 283
54 54 54 56 57 53 44 41 52 62 58 53 49 43 26 5 2 2 4 13 20 18 9 357 345 327 310 308 311 306 298 293 289 283 273 264 257 254 253 253 252 252 252 253 255 257 259 261 262 263 263 265 267 267 268 268 266 265 266 267 270 271 272 273 273 273 273 272 272 272 273 274 274 274 276 277 278 281 279 274 276 277 274 275 277
49 48 47 48 49 47 42 39 41 51 51 48 47 42 31 22 18 12 6 7 10 10 4 358 354 350 346 343 337 329 322 316 311 301 288 276 268 262 260 260 260 259 258 257 256 256 257 259 260 262 264 266 268 269 269 269 268 267 266 265 266 267 270 272 272 272 272 271 271 272 272 272 273 273 274 274 274 275 272 269 274 274 268 264 267
41 40 40 43 44 43 43 44 43 40 28 26 30 27 18 16 17 20 24 24 24 24 20 13 10 7 3 356 345 334 322 317 316 309 296 280 268 261 257 256 257 259 261 262 261 260 260 261 261 261 263 264 266 268 268 269 269 269 268 267 265 267 271 274 274 276 276 275 274 274 273 273 273 272 272 273 271 270 268 269 271 268 263 261 262
33 30 30 36 41 39 39 39 37 35 30 23 19 13 7 4 3 8 17 22 26 31 35 33 28 23 18 9 359 345 327 311 302 302 302 297 288 281 270 262 261 264 265 265 266 266 265 266 266 265 266 266 266 266 266 267 268 270 271 268 266 270 275 278 278 280 281 281 279 278 276 276 274 272 271 272 271 269 267 268 269 267 264 262 261
24 18 18 21 29 31 30 30 32 35 36 28 23 22 20 16 11 7 6 11 22 31 34 32 28 23 19 14 6 353 333 316 309 313 317 312 304 300 292 281 279 280 278 276 273 272 271 271 271 271 272 272 272 270 268 268 270 271 272 271 272 276 280 281 280 281 281 280 280 279 277 276 273 271 270 270 271 272 271 270 270 269 267 264 263
21 10 10 12 14 18 23 28 31 34 35 31 30 32 31 29 28 26 20 17 24 28 25 22 20 15 12 11 9 0 344 329 326 328 329 322 313 309 304 298 295 293 289 285 280 277 277 276 276 277 278 277 277 276 274 273 273 273 274 275 277 280 281 281 281 281 280 279 278 278 277 276 275 273 272 272 273 274 273 272 271 270 270 270 270
25 18 7 10 7 6 13 23 27 32 37 39 40 37 32 33 37 38 34 29 25 23 19 16 13 8 3 3 4 2 353 345 342 339 332 327 326 323 312 302 297 296 297 294 287 283 283 282 280 278 276 274 274 275 275 275 274 274 274 276 277 277 278 279 281 283 285 284 281 278 276 275 275 275 274 274 275 274 273 273 273 272 272 273 273
18 16 16 24 11 4 6 15 23 30 35 38 39 36 32 30 27 24 23 23 21 19 15 11 8 5 1 357 356 355 354 352 351 349 340 329 323 322 319 314 308 304 304 305 300 292 288 287 286 282 278 275 274 274 275 275 276 276 277 277 277 275 275 277 279 283 287 287 282 278 277 276 275 275 275 276 277 276 275 273 273 273 272 272 273
5 9 12 21 22 7 1 6 16 23 26 28 31 29 25 22 18 15 14 16 16 14 10 5 1 359 357 354 350 348 348 348 350 354 353 341 326 320 321 324 324 320 317 316 313 304 295 291 290 289 287 284 282 279 278 277 277 278 279 279 278 276 275 276 278 280 281 281 279 278 278 278 278 278 280 281 280 278 275 273 272 271 270 270 271
353 356 359 2 11 1 355 360 5 5 9 17 19 16 14 14 13 12 12 12 12 11 7 3 358 353 349 346 344 342 342 344 345 348 349 345 340 335 330 327 326 325 323 321 319 313 307 301 298 296 293 292 290 288 285 283 282 282 282 281 279 276 276 276 276 277 277 277 277 276 276 277 278 279 282 282 280 277 274 272 271 271 269 267 268
357 352 348 347 342 333 345 4 2 352 353 356 356 359 4 9 11 10 10 9 9 9 6 2 358 353 346 339 336 336 338 341 343 341 339 340 342 345 343 339 336 333 330 328 325 320 316 312 308 303 300 298 297 296 294 292 290 288 288 287 285 281 278 278 277 276 276 276 275 274 274 276 276 276 277 276 276 276 274 271 270 269 269 268 268
10 6 1 358 355 2 55 53 26 7 359 352 352 357 1 5 9 11 12 10 8 6 1 354 349 346 340 334 332 331 332 338 343 341 335 333 336 341 343 344 343 342 339 336 331 327 324 320 314 310 307 305 303 303 303 302 300 298 296 295 294 289 285 281 277 274 273 274 274 273 274 274 274 274 273 272 272 273 272 269 266 266 266 265 263
31 29 32 39 43 47 53 45 28 21 15 6 5 5 0 358 360 1 3 4 1 357 351 345 341 339 335 332 332 329 327 334 343 342 335 331 332 336 340 342 341 340 340 337 333 331 330 328 324 319 316 313 310 308 307 306 305 303 300 299 298 294 289 282 277 276 276 275 271 270 272 273 273 274 274 272 271 271 270 266 263 264 263 260 257
38 35 32 37 38 32 25 18 12 15 19 18 15 5 348 341 343 344 344 344 343 345 347 346 345 344 341 338 335 328 324 330 339 339 335 332 333 335 339 341 339 338 338 336 333 332 331 328 325 323 320 317 312 308 307 306 304 302 300 298 296 293 290 285 281 280 280 276 271 269 270 269 270 273 274 273 273 272 270 265 263 262 260 257 258
33 28 21 20 21 17 10 5 2 6 13 15 8 356 345 335 329 329 335 338 337 339 345 352 357 355 351 349 344 336 329 330 332 332 331 333 335 336 338 340 342 342 340 339 337 336 334 329 325 323 321 316 310 307 305 303 300 298 296 293 290 287 286 285 284 283 280 276 273 272 271 270 270 271 270 270 272 272 269 266 263 261 259 259 260
27 22 17 14 17 19 18 13 7 3 0 357 354 352 351 345 336 329 331 336 337 337 344 353 357 357 356 354 347 340 333 328 327 329 334 337 337 336 337 340 343 344 345 348 347 343 338 332 326 325 323 319 316 313 308 302 298 295 291 288 286 284 284 286 287 285 279 276 275 274 274 274 273 272 270 268 267 267 266 265 262 259 258 259 259
26 23 20 20 25 28 26 21 12 2 357 354 352 351 350 348 342 336 334 336 338 340 346 351 354 356 359 356 351 349 349 346 344 346 347 345 342 339 338 339 341 345 350 355 355 350 346 341 337 336 337 335 333 331 324 315 308 302 293 287 283 283 284 287 289 286 281 278 277 276 276 277 274 272 270 267 264 263 263 263 261 259 257 256 257
24 25 24 23 25 24 21 17 10 2 358 356 353 350 347 345 344 342 339 337 337 339 342 345 349 356 358 356 356 4 8 4 359 356 352 349 347 344 340 338 340 346 356 3 2 358 356 352 348 347 347 345 345 344 341 336 332 327 319 310 301 296 293 291 286 283 282 283 282 278 276 275 273 271 268 266 265 264 263 263 262 259 255 254 255
24 26 21 17 16 12 7 4 2 358 355 353 349 347 345 343 342 341 339 335 331 329 333 338 344 351 353 351 349 354 356 353 352 351 349 347 346 345 344 346 350 355 1 4 3 360 357 353 349 346 344 341 340 340 339 337 336 336 335 333 330 327 322 313 301 292 286 282 281 280 277 274 272 269 267 266 264 262 261 262 262 259 258 258 258
28 27 19 12 8 3 356 350 348 347 346 345 341 338 337 337 338 339 338 334 329 325 328 334 338 342 346 347 345 344 345 345 345 345 345 345 346 349 355 1 4 2 359 357 356 354 352 350 346 342 340 337 335 334 333 331 330 329 328 329 331 332 332 332 327 319 305 289 279 275 275 275 274 271 268 264 261 259 260 261 262 262 262 263 262
23 23 19 10 2 357 351 344 342 342 342 341 339 337 336 335 336 337 336 334 332 329 330 334 337 337 339 342 342 341 340 338 338 339 340 342 345 353 2 7 5 0 355 350 347 345 345 345 341 337 335 333 330 329 329 328 326 325 324 324 325 325 326 327 327 328 327 316 297 281 275 274 273 271 268 263 262 261 261 261 261 262 263 264 264
10 12 11 4 356 353 351 348 346 345 344 343 342 342 339 337 335 334 333 333 333 333 333 335 336 335 335 337 338 337 335 335 337 340 342 343 345 351 357 359 359 359 356 350 346 342 341 340 338 336 333 331 329 329 328 326 325 324 323 322 322 322 323 324 323 323 326 327 324 313 298 285 277 272 266 261 261 263 263 262 261 260 260 261 262
351 352 354 353 351 352 351 348 345 342 341 342 343 342 339 336 333 331 331 331 331 331 332 332 331 331 332 335 338 336 334 338 344 346 346 346 347 348 351 352 354 354 351 347 345 340 336 335 335 334 332 330 329 328 328 326 326 325 324 323 323 322 322 322 322 320 320 320 322 322 319 311 302 293 280 268 261 260 260 260 258 256 255 254 255
341 343 346 348 349 348 346 344 341 339 339 340 340 337 334 331 330 329 329 329 328 328 328 327 328 329 331 334 337 338 339 343 346 343 339 341 343 345 347 347 346 344 342 340 338 334 331 331 331 330 329 328 327 327 327 327 326 325 323 323 323 322 321 321 320 319 319 318 314 312 311 311 313 313 310 300 287 276 268 261 258 255 254 253 253
345 341 339 340 343 343 340 337 335 334 334 335 334 330 327 325 326 328 328 327 326 325 324 324 326 329 331 332 333 335 337 339 339 334 328 333 339 341 343 341 338 336 336 334 331 330 330 330 330 329 326 323 324 325 325 325 324 323 322 322 322 319 318 319 319 318 315 311 310 310 309 308 309 311 312 311 309 305 298 287 276 269 264 262 262
358 351 339 334 335 332 327 324 322 324 326 326 324 323 322 323 327 328 327 325 323 321 321 322 324 327 329 329 329 331 333 336 336 332 329 333 336 337 338 335 332 331 331 329 329 330 329 329 330 330 326 321 321 323 323 323 322 320 318 318 318 317 315 316 316 313 308 306 308 310 311 311 310 308 307 304 303 302 300 296 291 285 278 273 270
359 354 339 329 325 317 311 310 311 312 314 315 314 315 318 323 327 327 325 324 323 322 321 321 321 322 323 324 327 330 332 334 335 333 331 333 334 334 334 331 326 325 325 326 328 330 329 327 328 327 323 318 318 319 320 319 318 318 316 314 313 313 312 312 312 309 306 307 309 310 311 311 310 307 305 302 299 295 292 290 289 287 283 280 278
341 335 325 319 317 314 309 307 306 306 308 310 313 316 319 322 324 325 324 323 321 319 318 318 318 320 321 322 326 329 328 328 329 331 331 333 333 332 331 329 325 323 324 326 328 330 329 327 326 322 318 316 316 317 318 318 319 319 317 313 310 309 309 309 309 307 306 307 307 307 307 308 307 305 303 300 297 293 289 286 284 284 284 284 283
334 332 328 324 321 319 315 310 307 309 314 317 318 320 320 320 319 319 319 319 317 316 316 316 317 317 318 319 322 324 324 324 326 328 329 330 331 329 324 322 322 324 326 328 329 329 328 327 323 319 316 316 318 318 317 317 320 324 321 314 308 306 306 307 306 304 304 305 306 306 305 304 303 302 301 299 297 294 289 285 283 282 282 282 283
337 340 341 337 331 324 317 312 311 314 317 317 317 318 319 318 317 317 315 313 314 314 314 315 315 315 315 317 319 321 323 324 325 326 325 324 323 320 317 318 320 324 327 329 330 329 327 326 323 321 320 321 323 322 316 313 317 322 324 320 313 308 306 306 304 303 304 305 306 305 304 302 300 299 297 294 294 293 290 287 286 283 281 281 281
351 348 343 338 332 326 322 322 322 322 322 322 320 319 318 317 316 316 314 312 311 311 311 313 314 314 314 316 318 320 321 321 321 321 320 318 315 315 316 318 321 325 328 329 330 331 330 328 326 325 326 327 326 322 314 312 315 318 321 322 320 317 313 310 306 305 306 307 305 304 303 300 298 298 296 294 293 291 290 289 288 286 284 284 284
352 342 336 333 332 332 336 340 338 333 331 331 328 324 322 319 317 315 314 311 310 309 308 308 310 311 312 314 316 317 317 318 318 317 316 314 313 314 317 320 324 327 328 329 332 336 337 335 333 331 329 328 325 318 313 312 316 317 318 319 321 320 318 315 310 308 308 307 305 303 302 299 297 296 295 294 292 290 287 286 286 286 287 287 286
346 341 337 336 337 342 345 345 341 337 335 334 330 326 324 322 318 316 314 313 311 310 308 306 306 307 309 310 312 313 314 315 316 315 314 313 312 313 316 319 323 325 325 327 331 334 336 338 337 332 325 322 322 321 319 319 321 322 322 322 322 320 318 314 310 309 310 309 306 303 301 299 298 297 295 294 293 289 284 281 282 284 286 287 286
350 348 344 341 343 344 341 339 337 335 332 329 326 323 322 320 318 316 315 314 312 311 308 305 303 303 304 306 307 310 312 314 314 315 315 313 312 312 313 316 318 320 321 321 322 324 328 333 332 325 320 323 326 326 325 324 326 327 327 325 323 319 316 313 310 310 312 311 308 306 305 302 299 296 294 294 294 290 284 281 281 282 282 283 283
344 343 340 338 338 338 335 334 333 329 326 324 322 319 318 317 316 314 313 311 311 310 308 305 301 300 300 303 306 309 312 314 315 315 315 313 312 312 313 313 314 315 314 313 315 319 323 324 319 315 318 324 328 328 327 327 329 330 329 327 324 321 318 314 310 310 311 310 307 308 307 303 298 296 297 297 295 291 286 284 285 283 281 280 279